GFSNGP_850_dewp_030.txt.gz
Dewpoint
-4 -3 -2 -1 -3 -4 -4 -2 2 1 -5 -7 -9 -6 -8 -8 -6 -5 -4 -0 1 2 3 4 4 4 4 3 2 -0 -1 -1 -4 -4 -7 -4 -5 -6 -7 -6 -5 -5 -6 -6
3 0 -1 -0 -2 -3 -5 -6 -5 -6 -6 -9 -9 -6 -6 -7 -7 -6 -4 -4 -1 1 3 4 4 4 3 2 0 0 -0 -2 -5 -2 -5 -6 -6 -7 -8 -6 -6 -7 -6 -6
6 0 -0 4 1 -2 -4 -5 -5 -2 -3 -6 -7 -8 -5 -5 -5 -5 -3 -3 -3 -0 1 3 3 4 2 2 -1 -0 -1 -3 -3 -5 -6 -6 -7 -8 -8 -8 -8 -7 -6 -6
9 4 6 -4 -7 -8 -6 -7 -8 -9 -7 -8 -4 -5 -6 -6 -5 -3 -4 -3 -2 -2 -0 1 3 3 2 0 -1 -1 -1 -4 -4 -6 -7 -8 -8 -10 -9 -8 -8 -7 -6 -6
10 5 -1 -4 -7 -6 -5 -5 -7 -6 -7 -7 -6 -5 -5 -3 -3 -3 -3 -3 -4 -2 -0 1 2 2 1 -1 -1 -2 -3 -4 -4 -5 -8 -8 -9 -8 -8 -7 -7 -7 -6 -6
7 9 9 0 -5 -6 -6 0 -5 -5 -4 -5 -5 3 -0 -0 -1 -2 -2 -2 -1 -1 0 2 2 0 -1 -1 -4 -4 -4 -4 -6 -4 -11 -12 -9 -8 -6 -6 -6 -6 -6 -6
7 9 6 -3 -5 -4 2 5 -3 -3 -3 -3 -0 -1 -0 -0 0 -0 -1 -0 1 1 1 1 -0 -2 -4 -6 -5 -2 -3 -4 -7 -6 -12 -8 -6 -6 -6 -6 -6 -6 -6 -6
9 9 8 -5 -4 -0 2 -2 -3 -2 -2 -1 -1 -1 -1 -1 -1 1 0 1 0 -1 -2 -4 -5 -5 -3 -3 -2 -3 -6 -5 -7 -12 -10 -5 -5 -6 -6 -7 -6 -5 -5 -5
6 7 -0 -6 -4 -5 -3 -2 -2 -1 -1 -0 0 1 1 1 1 1 0 -2 -4 -4 -4 -4 -4 -3 -3 -3 -4 -5 -6 -11 -13 -11 -6 -6 -6 -6 -7 -7 -6 -8 -6 -5
3 -4 -4 -4 -4 -3 -1 1 1 1 2 2 3 3 3 2 1 -1 -4 -5 -4 -3 -4 -3 -2 -2 -3 -5 -4 -7 -11 -13 -8 -6 -6 -6 -9 -7 -6 -7 -6 -6 -7 -7
0 -1 -1 -1 2 3 3 3 3 3 3 2 2 3 2 -2 -3 -4 -2 -3 -3 -3 -2 -3 -3 -3 -3 -5 -8 -12 -11 -12 -11 -11 -12 -11 -6 -6 -6 -6 -6 -7 -7 -7
6 3 3 3 2 2 2 2 1 1 0 -0 -1 -1 -2 -2 -2 -3 -3 -3 -2 -2 -2 -2 -3 -5 -6 -7 -10 -12 -14 -14 -13 -12 -10 -8 -6 -6 -7 -7 -7 -7 -7 -7
3 3 3 3 2 2 2 1 1 0 0 -0 -1 -1 -1 -1 -2 -2 -2 -2 -1 -2 -5 -4 -5 -8 -14 -14 -13 -14 -13 -12 -11 -8 -7 -6 -6 -7 -6 -8 -7 -8 -6 -6
2 3 2 2 2 1 1 0 -0 -1 -1 -1 -2 -2 -2 -2 -2 -1 -2 -3 -4 -5 -6 -7 -8 -9 -9 -10 -10 -11 -10 -9 -6 -5 -5 -6 -7 -7 -7 -8 -8 -8 -9 -8
1 1 2 1 1 0 -0 -1 -1 -1 -1 -2 -2 -3 -3 -3 -3 -3 -3 -4 -7 -11 -7 -6 -6 -9 -8 -8 -7 -6 -6 -5 -5 -5 -6 -6 -6 -7 -7 -8 -8 -9 -7 -8
2 1 1 0 -0 -1 -1 -1 -1 -2 -3 -3 -3 -4 -4 -5 -5 -6 -6 -6 -9 -11 -12 -11 -11 -12 -11 -10 -9 -7 -6 -6 -6 -6 -6 -6 -5 -6 -6 -6 -7 -8 -9 -8
1 0 -0 -1 -1 -2 -3 -2 -2 -2 -3 -7 -12 -13 -13 -12 -8 -8 -10 -10 -10 -11 -11 -10 -7 -5 -6 -6 -6 -5 -5 -5 -6 -5 -5 -7 -7 -7 -7 -7 -6 -7 -7 -9
0 -0 -1 -2 -2 -2 -3 -3 -7 -9 -13 -12 -12 -12 -11 -11 -10 -9 -10 -11 -11 -11 -8 -4 -4 -4 -4 -5 -5 -5 -6 -6 -7 -6 -5 -5 -7 -7 -9 -8 -8 -7 -7 -9
-1 -2 -2 -2 -3 -4 -4 -9 -8 -8 -10 -10 -10 -10 -10 -10 -12 -14 -16 -18 -16 -7 -6 -6 -7 -8 -9 -9 -8 -8 -6 -6 -6 -6 -7 -7 -6 -8 -9 -8 -8 -8 -8 -8
-3 -3 -4 -6 -6 -9 -11 -7 -4 -8 -9 -10 -13 -16 -17 -18 -18 -19 -16 -11 -8 -7 -7 -9 -10 -14 -12 -11 -10 -10 -11 -10 -9 -8 -8 -6 -7 -8 -9 -8 -9 -8 -8 -8
-5 -5 -10 -11 -10 -9 -9 -9 -9 -11 -15 -16 -16 -17 -19 -21 -19 -18 -12 -10 -9 -10 -12 -20 -20 -12 -11 -12 -13 -13 -12 -12 -10 -9 -8 -7 -7 -7 -8 -8 -8 -8 -8 -8
-5 -10 -9 -7 -7 -8 -8 -10 -14 -15 -15 -16 -18 -21 -24 -26 -23 -17 -13 -11 -12 -16 -20 -18 -12 -12 -13 -14 -13 -12 -10 -9 -9 -8 -9 -9 -7 -8 -9 -9 -9 -10 -10 -10
-7 -8 -7 -4 -5 -8 -11 -13 -14 -14 -15 -18 -19 -22 -25 -23 -16 -14 -11 -13 -14 -16 -18 -13 -14 -16 -16 -15 -13 -13 -12 -12 -11 -10 -10 -10 -10 -10 -10 -11 -11 -12 -12 -11
-4 -4 -6 -7 -9 -12 -10 -12 -13 -12 -15 -17 -15 -17 -19 -18 -15 -13 -14 -15 -16 -16 -16 -15 -17 -18 -17 -16 -15 -15 -14 -15 -14 -13 -13 -13 -13 -13 -13 -13 -13 -13 -13 -13
-5 -6 -8 -9 -9 -9 -11 -13 -14 -14 -16 -18 -14 -14 -15 -13 -14 -14 -14 -14 -15 -15 -16 -16 -16 -17 -17 -17 -17 -16 -16 -16 -16 -16 -15 -15 -15 -15 -15 -15 -14 -14 -18 -19
-6 -7 -9 -11 -11 -12 -14 -20 -22 -17 -19 -13 -14 -18 -14 -14 -14 -15 -15 -15 -16 -16 -17 -17 -18 -17 -17 -18 -17 -17 -17 -17 -17 -17 -17 -17 -17 -17 -16 -16 -16 -19 -21 -21
-9 -9 -9 -9 -11 -15 -20 -24 -20 -22 -15 -14 -15 -17 -14 -14 -15 -15 -16 -16 -17 -17 -18 -18 -18 -19 -19 -19 -19 -19 -19 -18 -18 -19 -18 -18 -18 -18 -18 -18 -18 -20 -20 -20

GFSNGP_850_dewp_033.txt.gz
Dewpoint
-1 0 -0 -0 0 -0 -2 1 2 1 0 -2 -6 -6 -6 -5 -5 -5 -4 1 4 3 3 3 4 4 5 5 5 4 2 1 0 -2 -2 -0 -3 -3 -2 -5 -7 -8 -6 -6
3 2 0 0 -0 -1 -1 -2 -3 -2 -1 -5 -6 -6 -6 -6 -6 -5 -4 -4 -3 1 3 3 4 4 5 5 4 4 3 0 -0 -2 0 -2 -3 -1 -5 -10 -10 -7 -7 -7
4 1 -1 0 -2 -2 -1 -2 -3 -2 -3 -3 -4 -4 -5 -5 -5 -3 -3 -2 -2 -2 -0 4 4 4 5 5 4 3 1 0 -2 -2 -0 -3 -2 -3 -6 -10 -9 -8 -8 -7
4 2 -1 -1 -6 -7 -6 -5 -5 -5 -5 -4 -5 -2 -3 -3 -3 -3 -4 -4 -4 -3 -2 -1 1 5 5 4 3 1 0 -2 -2 -3 -3 -4 -3 -7 -9 -10 -10 -9 -7 -7
3 4 1 -1 -4 -3 -4 -2 -4 -3 -3 -4 -5 -3 0 -1 -2 -2 -2 -2 -2 -2 -0 1 2 4 4 2 -0 -1 -2 -3 -3 -4 -4 -3 -5 -8 -9 -9 -7 -6 -6 -6
4 4 1 2 -5 -5 -6 1 -2 -2 -1 -2 -2 1 2 0 -0 -1 -1 -0 -0 -0 1 2 2 2 0 -1 -1 -3 -3 -3 -3 -2 -4 -5 -5 -8 -9 -6 -8 -7 -5 -6
3 3 4 2 -4 -5 -1 1 -2 -2 -1 -1 0 0 -1 -1 -0 0 1 1 1 1 1 -0 -0 -0 -1 -3 -4 -3 -2 -2 -2 -2 -4 -9 -10 -7 -5 -6 -7 -6 -7 -6
5 6 5 -2 -3 -2 2 -2 -2 -2 -0 0 0 1 1 1 1 1 1 0 0 0 -1 -3 -3 -3 -4 -5 -3 -2 -2 -1 -2 -6 -8 -10 -10 -8 -6 -6 -6 -6 -7 -7
5 5 2 -4 -4 -3 -3 0 1 2 2 2 3 3 3 2 0 -1 -1 -1 -2 -1 -2 -3 -3 -3 -3 -3 -1 -0 -1 -5 -7 -9 -11 -13 -8 -6 -6 -6 -7 -6 -6 -6
2 -0 -1 -2 2 2 1 2 3 3 3 3 3 3 1 -0 -2 -3 -4 -4 -4 -4 -4 -4 -3 -1 -1 -2 -2 -4 -7 -9 -11 -14 -12 -8 -7 -8 -9 -7 -6 -6 -6 -6
1 1 4 3 3 3 3 2 2 2 2 1 1 -1 -1 -2 -3 -3 -3 -4 -4 -3 -2 -2 -3 -2 -4 -5 -8 -10 -12 -15 -15 -14 -14 -13 -12 -10 -8 -6 -6 -6 -8 -7
3 4 3 2 2 2 2 1 1 1 0 -1 -1 -1 -2 -2 -3 -3 -3 -2 -2 -2 -2 -3 -6 -7 -8 -10 -13 -14 -14 -14 -14 -13 -12 -10 -9 -9 -7 -7 -9 -8 -8 -7
3 3 2 2 2 2 1 1 1 1 -0 -0 -1 -1 -1 -2 -2 -2 -2 -2 -4 -6 -6 -6 -7 -9 -10 -11 -11 -11 -12 -12 -11 -10 -9 -8 -7 -7 -7 -8 -8 -9 -9 -9
2 2 2 2 1 1 1 -0 -1 -1 -2 -2 -2 -2 -2 -3 -3 -4 -5 -5 -6 -8 -7 -6 -6 -6 -6 -6 -7 -7 -8 -8 -8 -7 -6 -5 -6 -6 -6 -7 -7 -8 -8 -9
2 3 1 1 0 -0 -1 -2 -2 -2 -3 -3 -3 -4 -4 -4 -4 -5 -5 -5 -6 -10 -11 -11 -11 -10 -10 -10 -10 -9 -7 -6 -5 -5 -5 -5 -5 -5 -5 -5 -6 -7 -8 -8
1 1 0 0 -1 -1 -2 -2 -2 -3 -3 -3 -4 -6 -6 -6 -7 -7 -6 -9 -11 -10 -10 -9 -7 -6 -5 -5 -5 -5 -5 -5 -5 -5 -5 -5 -6 -6 -5 -5 -7 -7 -8 -8
1 -0 -1 -1 -1 -2 -2 -2 -2 -3 -5 -13 -13 -12 -12 -12 -11 -11 -11 -11 -13 -11 -7 -5 -5 -6 -6 -7 -7 -8 -8 -9 -8 -7 -7 -6 -6 -6 -6 -6 -6 -8 -8 -9
0 -0 -1 -2 -2 -2 -3 -4 -6 -13 -13 -11 -11 -11 -12 -14 -16 -17 -19 -18 -17 -9 -7 -7 -9 -10 -12 -18 -19 -16 -13 -11 -12 -14 -15 -13 -9 -7 -6 -7 -7 -7 -9 -9
-1 -2 -2 -3 -3 -4 -7 -11 -11 -11 -10 -10 -13 -16 -17 -18 -19 -20 -20 -17 -15 -11 -12 -10 -12 -21 -24 -17 -13 -14 -17 -16 -12 -11 -11 -12 -11 -10 -9 -8 -7 -8 -9 -9
-2 -3 -3 -4 -5 -10 -8 -7 -8 -10 -13 -16 -16 -17 -18 -20 -24 -24 -20 -13 -10 -11 -13 -21 -25 -23 -19 -18 -20 -19 -13 -12 -12 -11 -10 -9 -9 -9 -9 -7 -8 -8 -8 -8
-3 -5 -7 -11 -11 -8 -7 -7 -10 -14 -15 -15 -16 -18 -22 -26 -25 -22 -20 -14 -13 -16 -22 -23 -23 -22 -21 -20 -19 -17 -15 -14 -13 -13 -12 -11 -10 -9 -9 -8 -8 -8 -9 -9
-8 -11 -11 -9 -9 -9 -9 -12 -14 -14 -14 -15 -17 -22 -25 -25 -23 -19 -15 -16 -17 -20 -23 -23 -23 -21 -20 -19 -19 -18 -16 -16 -15 -15 -15 -14 -13 -12 -12 -12 -12 -11 -11 -11
-7 -7 -6 -7 -8 -9 -12 -13 -13 -13 -15 -17 -19 -22 -21 -21 -18 -18 -16 -17 -17 -19 -21 -20 -21 -21 -20 -19 -18 -18 -17 -17 -17 -17 -16 -15 -15 -15 -14 -14 -14 -13 -14 -13
-7 -5 -4 -5 -9 -10 -11 -12 -13 -13 -14 -16 -17 -18 -18 -20 -18 -17 -15 -17 -17 -18 -18 -18 -19 -19 -19 -19 -19 -18 -18 -18 -17 -17 -17 -17 -17 -16 -16 -16 -16 -16 -15 -15
-5 -6 -8 -9 -9 -10 -11 -13 -13 -15 -17 -20 -20 -19 -21 -17 -16 -15 -15 -17 -17 -17 -17 -18 -18 -18 -19 -19 -19 -19 -19 -18 -18 -18 -18 -18 -18 -18 -18 -17 -17 -17 -17 -16
-7 -8 -8 -9 -9 -11 -13 -18 -21 -20 -22 -24 -22 -19 -20 -15 -14 -15 -16 -16 -18 -18 -17 -18 -18 -19 -19 -19 -20 -20 -20 -19 -19 -19 -19 -19 -19 -19 -19 -18 -18 -18 -18 -18
-8 -9 -10 -10 -11 -12 -19 -22 -24 -25 -23 -20 -18 -18 -16 -14 -15 -16 -16 -17 -18 -18 -18 -19 -19 -19 -19 -20 -20 -20 -20 -20 -20 -20 -20 -20 -21 -22 -22 -21 -21 -21 -20 -20

GFSNGP_850_dewp_036.txt.gz
Dewpoint
-1 -1 1 0 0 1 -1 -0 1 -1 0 -2 -5 -5 -6 -6 -5 -1 5 6 5 4 4 4 5 5 6 5 5 5 4 3 2 1 -1 -2 -1 -0 -4 -2 -4 -4 -8 -9
1 1 -1 -0 -1 -2 -1 -1 0 -1 -1 -4 -5 -4 -4 -4 -4 -3 -2 -2 -2 -0 3 3 3 4 4 5 5 5 4 2 1 -1 -2 -1 -1 -1 -1 -3 -1 -6 -7 -8
3 -0 -1 1 -1 -2 -2 -1 -2 -2 -3 -4 -4 -5 -5 -3 -3 -3 -3 -3 -2 -2 -0 2 3 3 4 4 5 5 3 1 0 -2 -2 -1 0 -2 -2 -2 -3 -7 -6 -9
3 0 1 0 -3 -3 -2 -3 -4 -3 -4 -2 -1 -1 -2 -2 -2 -2 -2 -3 -3 -3 -3 -1 2 4 5 5 5 3 1 0 -1 -2 -1 -2 -2 -2 -2 -2 -4 -7 -9 -9
2 3 1 -1 -4 -5 -3 -2 -3 -3 -3 -3 0 0 0 -0 -1 -1 -1 -1 -2 -2 -2 -2 -1 3 5 5 4 1 0 -1 -2 -2 -3 -2 -2 -2 -1 -7 -9 -9 -8 -9
4 2 1 -0 -4 -5 -3 1 -2 -1 -1 -1 -2 2 1 1 0 -0 -0 -0 -1 -0 0 1 1 3 4 3 2 0 -2 -3 -3 -3 -2 -0 -1 -5 -9 -8 -8 -10 -8 -7
1 1 1 -1 -3 -4 -3 -2 -1 -2 -1 -1 0 0 1 0 0 0 0 0 0 1 1 1 1 2 2 -0 -1 -3 -3 -3 -2 -0 -0 -4 -8 -9 -9 -9 -8 -8 -7 -6
4 3 2 -0 -3 -2 -1 -1 -1 -0 0 1 2 2 1 1 0 0 0 -0 -0 -0 -1 -1 -1 -1 -1 -0 -1 -2 -2 -0 -0 -3 -7 -8 -9 -11 -14 -11 -8 -7 -6 -6
3 3 0 -3 -2 -1 -2 0 2 1 2 2 2 1 0 -0 -1 -1 -1 -2 -2 -2 -3 -3 -3 -3 -3 -3 -1 0 -0 -2 -6 -8 -9 -11 -14 -13 -13 -12 -9 -10 -9 -7
3 3 4 3 1 1 1 1 2 2 3 3 2 0 -1 -2 -2 -3 -3 -4 -4 -4 -3 -3 -2 -2 -2 -2 -3 -6 -8 -10 -11 -14 -16 -16 -15 -14 -13 -13 -11 -10 -8 -7
4 4 3 3 2 2 2 2 2 2 2 1 1 -1 -1 -2 -3 -3 -3 -3 -2 -2 -3 -3 -3 -6 -8 -9 -11 -14 -16 -16 -16 -15 -15 -14 -14 -13 -12 -12 -10 -9 -9 -10
2 3 3 3 2 2 2 1 1 1 -0 -1 -1 -2 -2 -3 -3 -3 -2 -2 -3 -4 -6 -7 -9 -10 -11 -11 -13 -14 -14 -13 -13 -13 -12 -11 -10 -10 -9 -9 -9 -9 -8 -8
4 3 2 2 1 1 1 0 0 0 -0 -1 -1 -2 -2 -2 -2 -3 -4 -6 -7 -8 -8 -7 -8 -8 -10 -11 -11 -10 -9 -9 -8 -7 -7 -7 -6 -5 -5 -7 -7 -7 -7 -7
3 2 1 1 1 1 1 0 -0 -1 -2 -2 -3 -3 -4 -4 -4 -4 -5 -6 -9 -10 -10 -10 -11 -11 -11 -10 -10 -9 -8 -7 -6 -5 -5 -5 -5 -5 -5 -5 -5 -5 -5 -6
2 2 2 1 0 -0 -1 -2 -3 -3 -4 -4 -4 -4 -4 -4 -5 -5 -5 -6 -8 -12 -12 -12 -11 -10 -8 -6 -6 -6 -6 -5 -6 -6 -6 -7 -7 -6 -6 -6 -6 -6 -7 -7
2 2 1 0 -1 -1 -2 -3 -3 -3 -4 -4 -5 -5 -5 -5 -6 -7 -10 -12 -13 -14 -11 -10 -9 -9 -8 -9 -10 -12 -16 -19 -18 -17 -17 -18 -19 -18 -17 -11 -7 -7 -6 -7
1 -0 -0 -1 -2 -2 -3 -3 -3 -4 -6 -10 -13 -12 -10 -11 -12 -13 -17 -18 -16 -13 -9 -10 -10 -11 -14 -20 -27 -28 -26 -24 -22 -21 -19 -15 -13 -12 -10 -11 -11 -11 -7 -6
1 0 -1 -1 -2 -2 -2 -3 -5 -10 -14 -14 -12 -12 -14 -17 -18 -18 -19 -17 -14 -12 -12 -15 -19 -24 -28 -27 -25 -25 -24 -22 -19 -15 -15 -14 -11 -11 -10 -10 -9 -9 -9 -9
-0 -1 -1 -2 -2 -3 -4 -7 -12 -13 -12 -12 -15 -16 -17 -18 -20 -22 -22 -24 -21 -20 -20 -23 -26 -27 -26 -26 -25 -24 -22 -20 -18 -16 -15 -15 -14 -13 -12 -11 -10 -9 -8 -7
-1 -2 -2 -3 -4 -5 -11 -11 -11 -12 -15 -16 -16 -17 -18 -21 -25 -26 -25 -23 -20 -19 -21 -25 -26 -26 -25 -23 -22 -21 -20 -20 -18 -17 -17 -16 -15 -14 -13 -12 -11 -10 -10 -10
-2 -3 -3 -4 -8 -9 -9 -10 -12 -15 -16 -16 -17 -19 -22 -24 -25 -26 -24 -21 -22 -22 -22 -23 -23 -24 -23 -22 -21 -20 -20 -19 -18 -18 -17 -17 -16 -16 -15 -14 -13 -13 -13 -13
-3 -4 -7 -10 -9 -7 -8 -12 -15 -15 -15 -15 -17 -21 -23 -24 -25 -24 -22 -20 -19 -19 -19 -20 -22 -22 -22 -22 -21 -21 -20 -19 -18 -18 -18 -18 -17 -17 -17 -16 -15 -15 -15 -14
-9 -8 -6 -9 -9 -10 -12 -13 -13 -13 -14 -16 -19 -22 -22 -23 -22 -21 -18 -18 -17 -18 -18 -19 -19 -20 -21 -21 -21 -20 -20 -19 -19 -19 -18 -18 -18 -18 -18 -17 -17 -17 -16 -16
-4 -6 -7 -8 -10 -11 -12 -12 -12 -13 -14 -17 -18 -18 -19 -20 -18 -17 -16 -15 -16 -18 -19 -19 -19 -20 -21 -21 -21 -20 -20 -20 -19 -19 -19 -19 -19 -19 -19 -18 -18 -18 -18 -18
-4 -4 -5 -9 -10 -11 -12 -12 -12 -13 -15 -16 -16 -17 -19 -19 -18 -16 -15 -15 -16 -17 -19 -19 -19 -20 -21 -21 -20 -20 -20 -20 -20 -20 -20 -20 -20 -21 -21 -21 -21 -20 -19 -19
-5 -6 -9 -9 -10 -11 -12 -13 -14 -17 -19 -21 -20 -18 -19 -17 -16 -15 -15 -16 -17 -18 -20 -20 -20 -20 -20 -20 -20 -20 -21 -21 -21 -21 -21 -21 -22 -22 -22 -22 -22 -22 -22 -22
-6 -8 -9 -9 -9 -11 -15 -20 -21 -23 -23 -22 -19 -19 -18 -17 -15 -15 -16 -17 -18 -20 -20 -20 -20 -20 -20 -21 -21 -21 -21 -21 -22 -22 -22 -22 -22 -22 -22 -22 -22 -22 -22 -22

GFSNGP_850_dewp_039.txt.gz
Dewpoint
-1 -2 -0 -0 0 1 0 -0 1 -0 1 -1 -4 -5 -6 -6 -4 -1 1 6 6 7 7 8 8 9 8 7 6 6 6 6 6 5 3 0 -1 -3 -2 -1 -1 -1 -3 -3
1 -0 -1 0 -0 -1 -0 -1 -0 -1 -1 -4 -5 -4 -3 -3 -2 -2 -1 1 2 3 5 5 5 7 7 6 5 7 7 6 5 2 0 -0 -3 -2 -0 -1 -2 -3 -1 -1
1 0 -1 2 -0 -0 -1 -1 -1 -1 -3 -5 -4 -4 -2 -3 -3 -3 -2 -2 -2 -2 -2 1 3 4 4 5 6 7 6 5 4 1 0 -2 -1 -1 -0 -2 -2 -0 -1 -5
3 0 2 -1 -2 -3 -2 -3 -4 -3 -4 -2 -2 -2 -2 -2 -2 -2 -2 -2 -2 -2 -2 -2 -2 -1 3 5 5 5 5 3 2 1 -0 -1 -1 -1 -1 0 -1 -3 -4 -7
3 3 1 -1 -3 -3 -3 -3 -3 -2 -1 -0 0 -0 0 -1 -2 -2 -1 -1 -1 -1 -1 -1 -0 1 4 5 5 4 3 1 0 -1 -1 -2 -2 -0 -1 -1 -4 -7 -8 -10
2 2 3 1 -2 -5 -4 0 -3 -2 -1 -0 -1 -0 1 1 -0 -0 -0 -0 -0 -0 0 1 1 2 3 4 3 2 0 -0 -2 -2 -2 -1 -0 -0 -4 -7 -8 -8 -11 -11
1 1 1 -2 -3 -5 -2 -1 -2 -2 -2 -1 -1 -2 0 1 0 -0 0 0 0 1 1 1 2 2 3 2 1 -1 -3 -2 -0 -0 -1 -0 -3 -7 -8 -9 -9 -12 -12 -13
2 0 2 -2 -2 -4 -3 -1 -2 -2 -2 -0 1 1 1 0 -0 -0 -0 -0 -0 -0 -0 -0 0 1 -0 -1 -1 -1 -0 -1 -1 -0 -2 -5 -7 -9 -11 -13 -13 -14 -14 -16
3 2 -1 -1 -3 -3 -2 -2 -1 -1 1 0 2 0 -0 -0 -1 -1 -1 -1 -2 -2 -2 -3 -3 -3 -2 -2 -2 -1 -1 -3 -5 -7 -8 -10 -12 -14 -14 -14 -14 -14 -14 -14
2 3 3 2 -0 -2 -2 -1 0 1 2 1 1 -0 -1 -1 -2 -2 -2 -3 -3 -3 -3 -3 -2 -2 -3 -4 -6 -9 -11 -12 -13 -14 -15 -15 -15 -14 -14 -14 -13 -12 -12 -12
4 4 3 2 1 1 1 2 2 3 2 1 1 -1 -1 -2 -3 -3 -3 -3 -3 -3 -3 -5 -7 -8 -9 -11 -12 -13 -14 -13 -13 -12 -12 -13 -12 -11 -10 -10 -9 -8 -9 -9
3 3 1 2 2 1 1 2 2 2 1 0 0 -1 -2 -3 -3 -3 -3 -3 -4 -5 -6 -7 -9 -10 -10 -11 -11 -12 -12 -12 -12 -11 -11 -10 -9 -10 -9 -7 -6 -5 -5 -5
1 2 2 2 1 1 1 1 0 -0 -0 -1 -2 -2 -2 -2 -2 -3 -5 -6 -7 -9 -9 -9 -10 -11 -12 -12 -12 -11 -11 -10 -10 -9 -8 -7 -6 -6 -6 -8 -7 -7 -7 -7
1 2 1 1 1 1 1 -0 -0 -1 -1 -1 -2 -2 -2 -4 -5 -6 -8 -10 -10 -11 -12 -12 -12 -12 -11 -11 -9 -8 -8 -8 -9 -11 -13 -14 -13 -14 -15 -15 -15 -18 -15 -12
2 2 1 1 1 0 0 -0 -1 -1 -2 -3 -3 -4 -4 -5 -5 -6 -6 -7 -10 -13 -13 -12 -11 -11 -13 -14 -16 -19 -23 -27 -29 -29 -28 -26 -25 -23 -21 -18 -14 -13 -13 -14
2 2 1 1 0 -1 -1 -2 -3 -3 -4 -4 -4 -4 -5 -6 -6 -7 -9 -12 -12 -14 -16 -16 -16 -16 -19 -23 -30 -32 -31 -31 -31 -29 -27 -25 -22 -19 -15 -13 -12 -11 -11 -11
0 -1 -0 -1 -1 -2 -3 -3 -4 -4 -4 -5 -5 -5 -6 -8 -11 -13 -16 -17 -17 -17 -17 -17 -19 -23 -29 -31 -31 -31 -31 -30 -29 -27 -25 -21 -18 -16 -14 -13 -13 -13 -12 -11
2 1 0 -0 -2 -3 -3 -3 -4 -5 -7 -9 -9 -9 -11 -14 -17 -17 -18 -17 -18 -17 -20 -23 -26 -30 -30 -30 -30 -29 -28 -27 -25 -23 -21 -20 -19 -17 -15 -14 -13 -13 -13 -12
1 1 -0 -1 -2 -3 -3 -4 -5 -12 -13 -12 -13 -16 -17 -17 -18 -20 -21 -22 -21 -23 -25 -27 -28 -28 -28 -28 -27 -26 -25 -24 -23 -22 -21 -20 -19 -18 -17 -16 -15 -14 -14 -13
-1 -1 -1 -2 -2 -3 -4 -7 -13 -12 -14 -16 -16 -16 -16 -19 -23 -24 -25 -25 -25 -25 -26 -27 -27 -27 -27 -27 -25 -24 -23 -22 -21 -21 -20 -19 -19 -18 -18 -18 -17 -17 -16 -15
-1 -1 -2 -2 -3 -5 -9 -13 -13 -15 -16 -16 -16 -16 -19 -22 -23 -25 -25 -25 -25 -25 -26 -26 -26 -26 -26 -25 -24 -23 -22 -21 -21 -20 -19 -19 -19 -19 -18 -18 -18 -18 -17 -17
-2 -2 -2 -4 -9 -10 -10 -12 -14 -16 -16 -16 -18 -20 -22 -22 -23 -24 -25 -23 -22 -23 -24 -24 -24 -24 -24 -23 -22 -22 -21 -21 -20 -20 -20 -19 -19 -19 -19 -19 -19 -18 -18 -18
-2 -3 -6 -6 -5 -5 -9 -14 -15 -15 -15 -16 -18 -20 -22 -23 -23 -23 -22 -21 -20 -19 -20 -21 -21 -21 -21 -22 -22 -21 -21 -21 -21 -20 -20 -20 -20 -20 -20 -20 -21 -20 -20 -19
-5 -5 -4 -5 -6 -10 -13 -14 -14 -14 -14 -16 -17 -20 -21 -23 -22 -21 -19 -17 -16 -17 -18 -19 -20 -20 -21 -21 -21 -21 -21 -21 -21 -21 -20 -20 -21 -21 -22 -22 -22 -22 -22 -22
-4 -5 -6 -8 -11 -12 -12 -12 -12 -12 -13 -16 -17 -19 -20 -20 -20 -18 -16 -16 -16 -17 -18 -19 -20 -20 -21 -21 -21 -21 -21 -21 -21 -21 -22 -22 -22 -22 -22 -22 -22 -22 -22 -22
-5 -6 -8 -10 -10 -11 -11 -12 -12 -13 -15 -17 -19 -19 -19 -19 -17 -16 -16 -16 -17 -18 -19 -20 -20 -20 -21 -21 -21 -21 -21 -21 -22 -23 -23 -22 -22 -22 -22 -22 -22 -22 -22 -22
-6 -6 -8 -9 -10 -10 -10 -11 -14 -17 -18 -20 -20 -18 -18 -17 -16 -16 -16 -17 -18 -19 -20 -21 -20 -20 -21 -21 -21 -21 -21 -23 -24 -23 -23 -22 -22 -22 -22 -22 -22 -22 -22 -22

GFSNGP_850_dewp_045.txt.gz
Dewpoint
-1 -3 -1 0 1 1 1 2 4 2 0 -1 -2 -3 -4 -5 -5 -1 2 5 6 6 6 7 7 8 8 8 9 9 9 9 9 9 8 8 6 6 4 1 -1 -2 -1 -2
1 0 -0 1 -0 1 1 -0 0 -1 -0 -2 -3 -4 -3 -3 1 2 2 3 3 3 3 3 3 3 3 4 5 6 7 8 8 8 7 5 3 2 1 -1 -1 -1 -1 -0
3 0 -0 3 2 1 0 0 1 2 0 -2 -3 -2 -1 -1 -0 0 -0 -2 -2 -3 -3 -3 -2 -2 -1 1 3 5 6 7 7 6 4 2 1 -0 -2 -2 -1 -1 -0 0
4 2 5 1 -2 -2 0 -0 -1 -2 -3 -3 -3 -2 -2 -1 -1 -1 -1 -1 -2 -1 -1 -2 -1 -1 -1 0 2 4 5 5 5 4 2 1 -1 -1 -1 -1 -0 0 -0 -1
6 4 2 -1 -1 -1 -0 -3 -3 -2 -3 -3 -0 0 0 -1 -1 -1 -1 -1 -1 -0 0 0 0 0 1 1 2 3 4 3 3 1 0 -0 -1 -1 0 -0 -0 -1 -3 -5
3 5 6 2 -2 -4 -4 1 -3 -3 -1 -1 0 2 1 -1 -1 -0 -0 0 0 1 1 1 1 2 2 2 3 3 2 2 1 0 -0 -1 0 -0 -0 -1 -3 -6 -8 -8
3 6 4 -0 -3 -5 2 1 -4 -2 -1 0 0 -1 -0 -0 -0 -0 -0 0 1 1 1 1 2 2 2 2 1 0 -0 -1 -1 -0 0 0 -0 -2 -5 -7 -9 -10 -12 -13
3 5 5 -2 -4 0 1 -5 -5 -2 -1 0 -2 -1 0 -0 -0 -0 -0 0 1 1 1 1 1 1 0 -1 -2 -2 -1 -0 -0 -1 -3 -6 -8 -10 -11 -13 -13 -14 -14 -14
4 5 2 -3 -2 -5 -5 -6 -5 -3 -1 -1 -2 0 -0 -0 -1 -0 -0 -0 -0 -0 -1 -1 -1 -1 -0 -1 -1 -1 -3 -5 -8 -11 -13 -14 -14 -14 -14 -14 -12 -11 -10 -10
4 2 1 -1 -3 -4 -4 -4 -4 -2 -2 -1 -2 -1 -1 -1 -1 -1 -1 -1 -1 -1 -2 -2 -2 -3 -3 -4 -7 -10 -13 -14 -14 -14 -14 -14 -13 -12 -11 -11 -11 -11 -13 -15
3 1 3 1 0 -2 -2 -3 -3 -2 -1 -1 -2 -1 -1 -1 -1 -2 -2 -2 -3 -3 -3 -4 -5 -6 -9 -11 -11 -13 -14 -15 -14 -14 -14 -14 -16 -20 -27 -32 -32 -30 -26 -24
4 0 1 -1 -2 -1 -1 -3 -2 -3 -1 -1 -2 -1 -1 -1 -2 -2 -3 -3 -3 -4 -5 -7 -9 -10 -12 -13 -14 -14 -14 -14 -17 -23 -30 -34 -35 -35 -35 -34 -33 -32 -29 -26
1 -2 -2 -2 -1 0 -1 -1 -1 -1 -1 -0 -1 -1 -1 -2 -3 -3 -3 -3 -4 -6 -7 -9 -11 -13 -14 -13 -14 -17 -22 -28 -32 -34 -35 -35 -34 -33 -33 -32 -32 -31 -29 -26
1 0 0 -0 -0 0 0 1 1 1 0 -0 -0 -1 -2 -3 -3 -3 -4 -5 -7 -8 -10 -12 -12 -13 -14 -18 -23 -28 -32 -33 -34 -34 -33 -33 -32 -31 -30 -29 -28 -27 -26 -24
2 1 1 -1 -0 1 1 1 1 0 -0 -1 -1 -2 -2 -3 -3 -4 -6 -8 -9 -11 -12 -12 -13 -17 -22 -26 -30 -32 -33 -33 -33 -32 -31 -30 -30 -29 -28 -26 -26 -25 -24 -24
2 1 1 1 0 1 1 0 1 -1 -1 -2 -2 -3 -3 -4 -5 -7 -9 -10 -12 -13 -14 -16 -20 -24 -27 -30 -31 -32 -32 -32 -31 -30 -29 -28 -27 -26 -25 -24 -23 -23 -22 -22
1 0 0 0 -0 -1 -1 -1 -0 -1 -2 -2 -3 -3 -4 -4 -5 -7 -9 -11 -12 -16 -19 -22 -25 -27 -30 -31 -32 -32 -31 -30 -29 -28 -27 -27 -25 -24 -23 -23 -22 -21 -21 -21
2 2 1 1 -0 -1 -1 -1 -1 -2 -2 -2 -2 -3 -4 -4 -7 -10 -12 -14 -16 -20 -23 -25 -26 -29 -30 -31 -31 -31 -30 -29 -28 -27 -26 -25 -24 -23 -22 -22 -21 -21 -21 -21
3 4 2 1 0 -1 -1 -1 -2 -1 -2 -3 -3 -4 -5 -10 -14 -15 -15 -17 -21 -23 -24 -25 -28 -29 -30 -30 -30 -29 -28 -27 -26 -25 -24 -23 -23 -22 -22 -21 -21 -21 -21 -21
1 0 -0 -1 -1 -1 -1 -2 -2 -3 -3 -4 -4 -8 -14 -12 -10 -15 -18 -21 -22 -24 -24 -25 -27 -28 -29 -29 -29 -28 -27 -26 -25 -24 -23 -22 -22 -22 -21 -21 -21 -22 -24 -24
-1 -1 -1 -1 -2 -2 -2 -3 -3 -4 -4 -6 -12 -9 -7 -9 -16 -19 -20 -22 -22 -22 -23 -25 -26 -27 -28 -28 -27 -26 -25 -24 -23 -23 -22 -22 -21 -21 -22 -23 -24 -24 -24 -24
-1 -2 -2 -3 -3 -3 -4 -4 -5 -7 -11 -9 -6 -8 -15 -17 -18 -20 -21 -22 -21 -21 -22 -23 -24 -26 -28 -27 -25 -24 -23 -23 -22 -22 -22 -21 -21 -23 -24 -24 -24 -24 -24 -23
-3 -3 -3 -3 -4 -6 -9 -11 -12 -7 -6 -7 -12 -17 -18 -18 -18 -19 -20 -20 -20 -20 -20 -21 -23 -26 -26 -25 -23 -23 -22 -22 -22 -21 -21 -21 -23 -24 -24 -24 -24 -24 -23 -23
-3 -4 -4 -5 -7 -9 -11 -8 -7 -9 -12 -17 -18 -18 -18 -18 -19 -19 -19 -19 -18 -18 -19 -20 -22 -24 -24 -23 -22 -22 -22 -21 -21 -21 -21 -22 -24 -24 -24 -25 -26 -26 -25 -24
-5 -6 -6 -7 -7 -7 -8 -9 -9 -11 -15 -15 -15 -16 -17 -18 -17 -17 -18 -18 -18 -18 -19 -21 -22 -23 -23 -22 -21 -21 -21 -21 -21 -21 -22 -24 -25 -25 -26 -26 -27 -27 -27 -25
-6 -7 -8 -8 -8 -9 -9 -10 -10 -12 -12 -13 -13 -12 -12 -12 -13 -14 -14 -16 -18 -19 -20 -21 -22 -22 -22 -21 -21 -21 -21 -21 -21 -23 -25 -25 -25 -26 -26 -26 -26 -26 -26 -26
-9 -9 -9 -9 -10 -10 -10 -10 -11 -11 -11 -12 -12 -13 -13 -14 -14 -15 -15 -17 -18 -19 -20 -21 -21 -21 -21 -21 -21 -21 -21 -21 -22 -25 -27 -26 -26 -26 -26 -26 -26 -26 -26 -25

GFSNGP_850_dewp_048.txt.gz
Dewpoint
-4 -5 -6 -5 -5 -3 -1 -1 0 -0 -1 -2 -3 -3 -5 -3 -2 -0 1 5 6 8 9 10 10 10 10 10 9 9 9 9 9 9 9 8 8 7 7 7 6 6 4 2
-1 -3 -3 -4 -5 -5 -3 -4 -2 -1 -2 -4 -4 -3 -3 -3 -1 1 3 5 6 6 7 7 8 8 7 6 6 6 7 7 8 8 7 6 5 4 3 2 0 -1 -0 -0
0 -0 -1 4 1 -2 -3 -1 -0 -0 -2 -4 -3 -3 -3 -1 0 2 3 4 4 4 3 1 1 0 1 2 3 4 5 6 6 6 5 4 2 1 1 -0 -1 -1 -1 0
3 4 9 -2 -2 -3 -2 -2 -2 -2 -4 -4 -4 -3 -1 -0 1 1 1 2 2 -0 -1 -1 -1 -1 0 1 2 3 4 4 5 4 3 2 1 -0 -1 -1 -1 0 0 0
9 4 -0 -1 -1 -1 0 -1 -4 -3 -4 -5 -3 -1 -0 1 1 1 2 2 1 0 -0 0 0 0 0 1 2 2 3 3 2 1 1 0 -0 -1 -0 0 0 -1 -1 -2
5 5 10 -1 -3 -3 -3 2 -5 -5 -4 -4 -1 2 -2 1 1 1 1 1 1 1 1 1 2 2 2 2 2 2 2 1 1 0 -0 -0 0 0 0 -0 -2 -3 -4 -4
6 7 3 -1 -3 -4 2 2 -4 -5 -4 -2 0 -2 0 0 1 0 0 1 1 1 1 2 2 2 1 1 1 1 0 0 -0 -0 0 -0 -0 -1 -4 -5 -8 -11 -14 -14
6 9 8 -2 -3 -1 -1 0 -2 -1 -2 -1 -0 2 1 0 0 -0 0 1 1 1 1 1 1 1 1 1 0 -0 -1 0 0 -0 -1 -4 -7 -10 -12 -9 -11 -8 -8 -7
3 4 1 -2 -3 -3 -0 -2 -1 -2 -1 -0 1 1 0 0 -0 -0 -0 0 0 0 0 0 0 -0 -0 -0 -1 -0 -1 -3 -6 -10 -14 -15 -12 -11 -7 -6 -6 -6 -7 -7
4 -0 1 1 -1 -1 -1 -1 -1 -1 -0 1 1 1 0 -0 -0 -1 -1 -1 -0 -0 -1 -1 -1 -2 -2 -2 -3 -6 -10 -13 -13 -15 -13 -15 -12 -14 -12 -16 -22 -21 -13 -12
3 1 2 2 1 -0 0 -1 -3 -1 1 0 0 0 -0 -0 -1 -1 -1 -1 -1 -2 -2 -2 -3 -3 -5 -7 -8 -10 -14 -15 -15 -15 -18 -20 -22 -32 -33 -33 -35 -34 -29 -30
4 0 2 -0 1 2 1 1 -1 0 1 1 0 -0 -0 -1 -1 -1 -1 -2 -2 -2 -3 -4 -5 -8 -10 -10 -12 -15 -15 -17 -23 -29 -31 -31 -24 -16 -27 -32 -33 -33 -31 -29
1 0 1 1 -1 2 2 1 1 0 1 1 -0 -1 -1 -1 -2 -2 -2 -3 -3 -4 -5 -7 -9 -11 -13 -14 -15 -18 -24 -28 -30 -32 -32 -32 -30 -23 -15 -13 -24 -26 -28 -28
0 -0 0 -1 1 -1 1 -0 0 0 0 0 -0 -1 -1 -2 -2 -3 -3 -4 -5 -6 -8 -9 -12 -14 -15 -18 -23 -27 -29 -31 -32 -32 -32 -31 -29 -28 -22 -19 -16 -14 -17 -25
2 1 2 1 -0 -0 0 -0 0 0 -0 -1 -1 -1 -2 -2 -3 -3 -4 -5 -6 -8 -9 -11 -13 -17 -22 -26 -28 -29 -31 -32 -33 -33 -32 -32 -30 -28 -22 -20 -15 -16 -15 -16
2 1 1 1 0 -0 0 0 -0 -1 -1 -1 -2 -2 -2 -3 -4 -6 -6 -7 -6 -8 -10 -14 -20 -24 -27 -28 -29 -30 -31 -33 -32 -31 -30 -29 -28 -27 -23 -19 -18 -16 -15 -15
1 1 1 0 0 -0 0 -0 -0 -1 -2 -2 -3 -4 -4 -5 -5 -6 -5 -5 -7 -13 -17 -22 -25 -26 -28 -29 -30 -31 -31 -31 -31 -30 -29 -28 -27 -25 -24 -21 -19 -18 -16 -16
2 1 1 1 0 -0 -1 -1 -1 -1 -1 -2 -3 -4 -4 -5 -5 -5 -6 -7 -14 -18 -22 -24 -26 -27 -28 -29 -30 -31 -31 -30 -29 -28 -27 -27 -25 -25 -24 -22 -21 -19 -18 -19
2 2 1 0 -0 -0 -1 -2 -2 -2 -3 -3 -4 -4 -4 -4 -5 -6 -7 -13 -17 -21 -22 -24 -27 -27 -28 -29 -30 -30 -29 -28 -27 -27 -26 -25 -24 -24 -23 -22 -21 -22 -22 -23
-0 -0 -0 -1 -2 -1 -2 -2 -2 -3 -3 -3 -4 -5 -5 -6 -7 -8 -8 -11 -16 -21 -23 -24 -26 -26 -28 -29 -30 -29 -28 -27 -26 -25 -25 -24 -23 -23 -22 -21 -23 -25 -25 -24
-3 -3 -3 -3 -3 -3 -3 -3 -3 -4 -4 -4 -5 -6 -7 -7 -8 -8 -15 -20 -21 -22 -22 -23 -24 -25 -27 -29 -28 -27 -26 -25 -25 -24 -23 -23 -23 -22 -22 -23 -25 -26 -24 -24
-4 -4 -4 -4 -3 -4 -4 -4 -4 -4 -5 -6 -6 -6 -7 -8 -10 -16 -18 -19 -20 -21 -21 -21 -23 -24 -27 -27 -26 -25 -24 -24 -23 -23 -22 -22 -22 -22 -23 -25 -25 -26 -26 -25
-4 -4 -4 -4 -4 -4 -4 -5 -5 -6 -7 -7 -7 -8 -10 -14 -16 -17 -19 -19 -20 -20 -20 -21 -22 -24 -25 -25 -24 -23 -23 -23 -23 -22 -22 -21 -21 -22 -24 -25 -26 -27 -27 -27
-5 -5 -5 -6 -6 -7 -9 -9 -8 -8 -8 -9 -12 -14 -16 -18 -18 -19 -19 -19 -19 -16 -14 -15 -18 -22 -23 -23 -22 -22 -22 -22 -22 -21 -21 -21 -21 -23 -24 -25 -26 -26 -26 -26
-7 -7 -7 -7 -8 -8 -8 -9 -9 -10 -10 -11 -12 -14 -15 -16 -16 -14 -13 -13 -14 -14 -15 -16 -19 -21 -22 -22 -22 -22 -22 -21 -21 -21 -21 -21 -22 -24 -25 -26 -26 -26 -26 -26
-8 -9 -9 -9 -10 -10 -10 -10 -10 -11 -11 -11 -12 -12 -12 -12 -13 -13 -14 -14 -15 -16 -16 -18 -20 -21 -21 -21 -22 -22 -22 -21 -21 -22 -21 -22 -24 -26 -26 -26 -26 -26 -26 -25
-10 -10 -10 -11 -11 -11 -11 -11 -11 -12 -12 -12 -13 -13 -14 -14 -14 -15 -15 -16 -16 -17 -19 -20 -20 -21 -21 -21 -21 -21 -21 -22 -22 -22 -23 -25 -26 -26 -26 -26 -26 -25 -25 -24

GFSNGP_850_dewp_054.txt.gz
Dewpoint
-2 -3 -2 -1 -2 -2 -0 -1 7 5 0 -3 -4 -2 -2 -2 -4 -5 -5 -2 -1 3 7 8 9 9 10 10 10 10 10 10 11 11 10 9 9 8 8 8 7 7 7 6
2 -3 -2 -2 -3 -4 -4 -4 -4 -3 -1 -4 -6 -5 -2 -3 -3 -4 -5 -5 -3 1 5 8 9 10 11 11 11 11 11 10 10 9 8 8 7 7 6 6 6 5 3 1
4 -0 -1 1 -2 -4 -5 -4 -5 -2 -3 -5 -6 -6 -7 -7 -7 -5 -4 -4 -2 1 5 8 10 11 11 10 10 10 9 8 7 7 6 6 5 4 3 2 2 1 0 -0
6 6 6 -1 -4 -5 -4 -4 -6 -7 -7 -7 -7 -7 -7 -7 -5 -4 -2 1 3 6 8 9 10 10 9 9 8 7 6 5 5 5 4 3 3 3 2 1 0 1 1 0
7 6 2 -1 -2 -3 -2 -2 -5 -5 -6 -8 -8 -5 -4 -4 -3 -2 1 4 5 6 7 8 8 7 7 6 5 4 3 3 3 3 2 2 2 2 1 2 1 0 -1 -2
9 7 7 3 -2 -5 -4 2 -4 -5 -4 -5 -6 1 -2 -2 -1 2 3 4 4 5 5 5 5 5 4 4 3 3 2 2 2 2 2 2 1 1 1 -0 -1 -1 -3 -3
8 8 5 -2 -3 -4 3 3 -2 -5 -5 -4 -2 -3 -3 -2 1 2 2 3 3 4 4 4 4 3 3 2 2 2 2 2 2 2 1 1 0 -1 -1 -3 -3 -5 -10 -9
8 9 9 -1 -2 1 0 -3 -3 -3 -4 -5 -4 -2 -1 0 1 2 2 2 3 3 3 3 2 2 2 2 2 2 2 1 1 0 -0 -1 -2 -3 -5 -5 -6 -5 -6 -6
5 5 4 1 -1 -2 -3 -1 -1 -2 -3 -3 -1 1 1 2 2 2 1 2 2 2 2 2 2 2 2 2 2 2 1 -0 -1 -2 -3 -4 -5 -6 -6 -5 -5 -6 -9 -15
4 0 -0 3 3 -1 -1 -1 -1 -1 -1 -1 0 1 2 2 1 1 1 1 2 2 2 2 2 2 2 1 1 0 -1 -2 -4 -6 -6 -7 -7 -9 -8 -10 -15 -21 -21 -19
2 1 0 -2 -1 -0 1 -0 -0 -0 -0 -1 0 2 1 1 1 1 1 1 1 2 2 2 1 1 1 0 -1 -2 -4 -5 -5 -6 -9 -11 -12 -16 -19 -23 -29 -33 -32 -33
4 0 2 1 2 -1 -2 -1 1 0 0 -0 -0 2 1 1 1 1 0 1 1 1 1 1 0 -1 -2 -3 -4 -5 -6 -7 -9 -12 -14 -14 -15 -18 -21 -22 -26 -30 -33 -32
-1 -3 -2 1 1 1 0 0 1 2 1 0 1 1 1 1 1 0 0 1 1 1 -0 -2 -3 -4 -4 -5 -6 -7 -8 -10 -12 -15 -16 -18 -16 -15 -14 -14 -16 -21 -25 -26
1 1 2 2 2 1 0 -0 1 1 1 0 1 1 1 1 1 0 0 0 0 -1 -2 -3 -5 -6 -7 -7 -8 -9 -13 -17 -19 -21 -22 -23 -24 -20 -19 -15 -15 -17 -14 -15
1 2 4 3 2 2 1 1 1 2 1 1 1 1 1 1 0 0 -0 -0 -2 -3 -6 -8 -9 -10 -10 -11 -14 -19 -20 -20 -21 -22 -25 -29 -30 -31 -26 -22 -18 -15 -14 -12
3 3 3 2 2 2 1 1 1 1 1 1 1 1 1 -0 -0 -1 -2 -3 -5 -8 -10 -12 -12 -13 -14 -15 -19 -21 -22 -14 -11 -20 -29 -30 -29 -27 -22 -20 -17 -15 -14 -13
3 3 3 3 3 2 1 1 1 1 1 1 0 0 -0 -1 -2 -3 -5 -6 -9 -11 -12 -13 -14 -14 -13 -9 -8 -6 -7 -14 -26 -30 -28 -26 -26 -25 -21 -21 -19 -15 -14 -14
2 2 2 2 2 2 1 1 1 1 1 -0 -0 -1 -2 -3 -4 -5 -7 -8 -9 -9 -9 -8 -7 -7 -7 -7 -8 -10 -13 -20 -29 -29 -27 -27 -27 -26 -25 -21 -16 -14 -14 -15
0 1 1 1 1 1 1 0 0 -0 -1 -1 -2 -3 -4 -4 -6 -6 -7 -7 -7 -7 -9 -8 -8 -9 -10 -11 -12 -18 -27 -29 -29 -28 -27 -27 -26 -21 -18 -16 -15 -16 -17 -16
-3 -2 -2 -1 -1 -1 -2 -3 -3 -3 -4 -3 -4 -5 -6 -7 -7 -8 -8 -9 -9 -8 -9 -9 -10 -11 -12 -14 -17 -25 -29 -28 -28 -27 -25 -23 -22 -16 -18 -16 -16 -16 -16 -17
-6 -6 -6 -6 -6 -6 -6 -5 -5 -6 -6 -6 -7 -8 -8 -9 -8 -9 -8 -9 -10 -10 -10 -10 -11 -11 -14 -22 -24 -25 -25 -23 -21 -21 -18 -16 -16 -16 -16 -17 -17 -17 -18 -18
-7 -7 -7 -7 -7 -7 -7 -7 -7 -7 -7 -7 -8 -8 -9 -10 -9 -9 -10 -9 -10 -11 -11 -11 -13 -14 -17 -17 -14 -13 -14 -17 -18 -18 -17 -16 -17 -17 -17 -18 -18 -18 -19 -19
-8 -8 -8 -7 -8 -8 -7 -7 -8 -8 -8 -9 -9 -9 -10 -10 -10 -10 -10 -11 -12 -13 -13 -14 -15 -13 -14 -14 -15 -16 -16 -17 -17 -17 -17 -18 -18 -18 -18 -19 -19 -20 -20 -21
-8 -8 -8 -8 -8 -8 -9 -9 -9 -9 -10 -10 -11 -11 -11 -10 -11 -11 -12 -13 -14 -14 -14 -14 -15 -15 -16 -17 -17 -17 -17 -18 -18 -18 -18 -18 -19 -19 -19 -20 -20 -21 -21 -22
-9 -9 -9 -9 -10 -10 -10 -10 -11 -11 -11 -11 -11 -11 -11 -11 -12 -13 -13 -13 -14 -15 -15 -16 -16 -17 -18 -18 -18 -18 -19 -19 -19 -19 -20 -20 -20 -20 -21 -21 -21 -21 -22 -22
-10 -11 -11 -11 -11 -11 -11 -11 -11 -11 -12 -12 -12 -13 -13 -13 -14 -14 -14 -15 -16 -16 -17 -17 -18 -18 -19 -19 -19 -19 -20 -20 -20 -20 -21 -21 -21 -22 -22 -22 -22 -23 -23 -24
-12 -12 -12 -12 -13 -13 -13 -13 -13 -13 -13 -13 -13 -14 -14 -15 -15 -15 -16 -16 -17 -17 -18 -18 -18 -19 -19 -20 -20 -21 -21 -21 -21 -22 -22 -22 -23 -23 -23 -24 -24 -24 -24 -24

GFSNGP_850_dewp_060.txt.gz
Dewpoint
1 -2 -2 0 0 0 -0 1 3 2 4 2 2 1 -0 -1 -4 -5 -1 0 -0 -1 0 -0 -3 4 7 8 8 9 9 9 9 9 6 8 9 8 6 10 10 10 9 8
3 0 -2 -1 -0 0 -0 -0 1 1 4 1 -0 -1 -1 -2 -3 -4 -4 -1 1 0 1 1 -1 -3 6 8 9 9 10 10 9 9 9 9 10 9 10 10 9 8 8 8
7 0 0 3 1 -0 1 1 1 3 1 0 0 -1 -1 -2 -3 -3 -5 -4 -1 1 1 1 0 -1 -0 9 9 9 10 9 8 8 9 10 10 9 9 9 8 7 7 7
7 3 7 1 -1 -1 -0 -0 -1 -2 -3 -2 -2 -3 -4 -3 -3 -5 -6 -5 -4 1 1 3 3 3 3 6 9 10 10 10 10 11 10 10 10 9 8 7 6 6 5 5
7 7 3 3 1 1 1 -0 -2 -3 -4 -6 -7 -6 -3 -6 -4 -5 -6 -6 -4 -3 2 5 6 7 8 8 9 9 9 10 10 10 9 9 8 8 7 6 5 4 2 1
6 7 8 2 0 -1 -2 2 -3 -3 -2 -3 -4 -2 -2 -4 -5 -5 -5 -4 -4 -3 1 6 8 9 9 9 10 10 10 10 10 9 9 8 7 5 3 3 2 1 0 -0
6 7 6 3 3 -2 3 1 -2 -2 -2 -3 -2 -1 -5 -4 -3 -4 -4 -4 -3 -1 2 8 9 10 9 10 10 9 9 8 8 8 6 4 3 2 2 1 0 -0 -1 -1
6 7 7 4 4 4 3 3 4 3 3 0 -3 -4 -4 -4 -4 -3 -2 -1 1 2 7 8 9 10 10 10 9 8 7 7 5 4 3 2 2 1 1 0 -0 -1 -1 -3
4 4 2 4 3 3 3 2 2 3 2 3 1 -2 -3 -2 -1 -1 -3 -2 1 4 6 8 8 9 9 9 8 7 5 4 3 2 2 2 1 1 0 -0 -1 -1 -3 -4
5 2 3 -1 0 1 -0 -1 -1 2 2 0 2 1 0 -0 0 1 1 2 4 5 6 6 6 6 6 6 5 4 3 2 2 2 2 1 0 -0 -0 -1 -2 -3 -4 -6
3 1 1 0 0 1 0 -2 -1 -1 2 2 1 2 1 0 2 2 2 3 4 4 4 4 5 4 4 4 3 2 2 2 2 2 1 -0 -2 -2 -3 -4 -4 -5 -5 -5
3 1 0 -0 -6 -4 -0 -2 -1 -1 1 2 1 1 2 2 2 2 2 3 3 3 3 3 3 3 3 2 2 2 2 2 1 0 -1 -3 -4 -5 -5 -6 -6 -8 -10 -11
3 3 1 1 2 2 3 2 0 1 -1 -1 -1 0 2 2 2 2 2 3 3 3 3 3 2 2 2 2 2 2 2 -1 -3 -3 -4 -5 -7 -7 -8 -12 -18 -22 -24 -26
3 3 3 2 2 2 1 1 1 1 1 1 1 1 1 2 2 2 2 2 2 2 2 2 2 2 1 1 1 0 -1 -4 -6 -8 -10 -11 -12 -13 -16 -12 -7 -6 -8 -10
3 3 3 3 2 2 1 1 1 1 1 1 1 2 2 2 2 2 2 2 2 2 1 0 0 -1 -3 -2 -2 -4 -4 -6 -7 -7 -7 -7 -11 -9 -7 -7 -8 -9 -9 -10
2 2 2 2 2 2 2 1 1 1 1 1 1 1 1 1 0 -1 -1 -2 -1 -3 -4 -4 -4 -5 -5 -4 -3 -4 -5 -5 -6 -7 -8 -8 -7 -7 -8 -9 -10 -11 -13 -12
1 1 1 2 1 1 0 0 0 0 -1 -1 -1 -1 -2 -2 -3 -4 -5 -5 -5 -7 -6 -5 -6 -5 -5 -5 -5 -5 -6 -7 -7 -7 -7 -8 -9 -9 -10 -11 -12 -12 -13 -13
-2 -1 -1 0 -0 -0 -0 -0 -1 -1 -1 -2 -2 -2 -3 -4 -5 -6 -6 -6 -6 -6 -6 -7 -7 -7 -7 -7 -7 -7 -7 -8 -8 -9 -9 -10 -11 -11 -12 -13 -13 -14 -14 -14
-3 -3 -3 -2 -3 -2 -3 -3 -3 -3 -3 -4 -4 -4 -5 -6 -7 -7 -6 -6 -6 -7 -9 -9 -8 -8 -8 -8 -8 -9 -9 -9 -10 -10 -11 -11 -12 -13 -14 -14 -14 -15 -15 -15
-6 -6 -5 -6 -5 -5 -6 -6 -6 -6 -7 -6 -6 -7 -7 -7 -7 -7 -7 -9 -10 -10 -10 -9 -9 -9 -10 -10 -10 -10 -11 -11 -12 -13 -13 -14 -14 -15 -15 -15 -16 -16 -16 -17
-8 -7 -8 -7 -8 -8 -8 -7 -7 -7 -8 -7 -7 -8 -8 -9 -9 -9 -9 -10 -12 -11 -10 -10 -10 -10 -11 -11 -12 -12 -13 -13 -14 -14 -15 -16 -16 -16 -16 -17 -17 -17 -18 -18
-9 -9 -9 -9 -9 -9 -9 -9 -9 -9 -9 -9 -9 -9 -9 -10 -10 -10 -11 -11 -13 -12 -12 -12 -12 -13 -13 -13 -14 -14 -15 -15 -16 -17 -18 -18 -18 -18 -18 -18 -19 -19 -19 -20
-10 -10 -10 -10 -10 -10 -9 -9 -9 -9 -10 -10 -10 -10 -11 -11 -12 -12 -13 -13 -13 -13 -13 -14 -14 -14 -15 -15 -17 -18 -19 -19 -20 -20 -19 -19 -19 -19 -19 -20 -20 -20 -21 -21
-10 -10 -10 -10 -10 -10 -11 -11 -11 -11 -11 -11 -11 -11 -11 -12 -13 -13 -14 -14 -14 -15 -15 -16 -18 -19 -20 -20 -20 -21 -21 -20 -20 -20 -20 -21 -21 -21 -21 -22 -22 -23 -22 -23
-10 -10 -10 -11 -11 -12 -11 -11 -12 -12 -12 -13 -13 -13 -13 -14 -14 -14 -14 -15 -16 -16 -18 -19 -20 -21 -21 -22 -23 -23 -22 -22 -22 -22 -22 -22 -22 -23 -23 -24 -24 -24 -23 -24
-11 -11 -12 -12 -12 -12 -12 -13 -13 -13 -14 -14 -14 -15 -15 -15 -16 -16 -17 -18 -18 -18 -19 -20 -20 -20 -21 -21 -22 -22 -22 -22 -22 -23 -23 -24 -24 -24 -24 -25 -25 -25 -25 -25
-13 -13 -13 -13 -13 -13 -13 -14 -14 -14 -15 -15 -16 -16 -16 -16 -17 -17 -18 -18 -19 -19 -20 -21 -21 -21 -21 -22 -23 -24 -24 -24 -24 -24 -24 -24 -25 -25 -25 -25 -25 -25 -25 -25

GFSNGP_850_dewp_066.txt.gz
Dewpoint
7 5 5 5 4 3 4 -0 2 0 1 -1 -1 -1 -1 -3 -4 -3 -3 -2 -3 -4 -2 -2 -1 -1 0 1 4 5 7 7 7 7 6 6 5 6 7 5 6 7 7 6
6 4 3 4 1 3 3 1 0 0 0 -2 -2 -2 -1 -2 -2 -2 -2 -2 -3 -4 -4 -2 -3 -3 -1 1 0 2 5 3 7 8 8 8 7 7 7 8 6 7 7 9
4 4 2 2 4 0 0 1 1 2 -0 -2 -1 -0 -0 -1 -2 -2 -2 -2 -2 -3 -4 -4 -2 -2 -2 -1 1 2 3 5 7 8 8 9 9 9 8 9 9 9 9 10
4 3 5 -3 1 -1 2 -1 -3 -2 -1 -2 -2 -2 -3 -3 -2 -2 -2 -2 -2 -2 -3 -4 -5 -2 -0 0 1 3 5 6 7 8 8 9 9 9 10 10 9 9 9 9
4 4 2 -1 -4 -1 -0 -2 -3 1 1 -2 -2 -3 -4 -4 -4 -5 -6 -3 -2 -5 -5 -3 -5 -3 2 2 3 3 5 6 6 7 8 9 9 9 9 9 9 8 8 8
5 5 3 -2 2 4 3 3 4 5 4 4 2 0 -1 -4 -4 -5 -6 -6 -6 -6 -4 -3 -3 -4 2 4 4 3 3 6 7 8 9 9 9 9 8 8 8 8 8 7
5 6 3 1 2 4 7 2 3 4 4 4 4 1 1 -2 -4 -4 -3 -3 -4 -5 -4 -3 -4 -3 3 5 6 6 7 8 9 10 10 9 9 9 8 8 8 7 6 5
5 6 5 1 1 2 3 1 -2 0 2 3 3 3 2 2 1 -2 -4 -4 -4 -3 -2 -3 -2 3 6 7 7 8 10 10 10 9 9 9 8 8 8 7 6 5 4 3
3 2 -0 1 -2 -3 -2 -2 -1 1 -0 -1 2 2 2 2 2 2 2 4 4 4 2 1 3 6 7 8 9 10 9 9 9 9 9 8 7 6 5 4 4 3 2 1
2 -1 -0 -2 -3 -3 -0 -1 -2 1 1 -1 3 2 2 2 1 2 3 4 5 6 5 4 7 8 9 9 10 10 9 9 8 8 7 6 5 4 4 3 2 2 1 0
-0 -2 -0 -4 0 2 2 2 1 2 3 -0 0 2 3 2 1 1 2 4 6 8 8 8 8 9 10 10 9 9 8 7 7 6 5 4 3 2 2 1 1 0 0 -1
-1 3 3 3 3 3 2 3 3 3 4 3 2 2 2 3 2 2 2 3 5 6 8 8 7 8 8 8 8 8 7 6 6 5 4 3 2 2 1 0 0 -0 -1 -1
2 2 2 3 3 2 2 2 1 1 1 1 2 2 2 3 3 3 2 3 4 5 6 6 6 7 6 6 6 6 5 4 4 3 3 2 2 1 1 -2 -3 -3 -4 -5
1 1 2 3 2 2 1 0 1 -0 -0 0 1 1 1 1 2 2 2 3 3 4 4 4 4 4 3 3 4 4 3 3 2 1 1 -0 -2 -3 -3 -4 -4 -5 -6 -6
0 0 1 1 1 1 0 0 1 -0 -2 -1 -1 -0 -0 -0 -1 -2 -2 -1 -0 0 1 0 1 1 -0 1 2 1 0 -0 -1 -3 -3 -4 -5 -5 -5 -5 -6 -6 -7 -8
-2 -1 0 -0 -0 1 -2 -1 -0 -2 -4 -4 -2 -2 -3 -3 -3 -4 -4 -3 -1 -3 -4 -3 -3 -4 -4 -3 -2 -3 -3 -4 -4 -5 -5 -6 -6 -6 -7 -8 -8 -9 -10 -10
-3 -2 -3 -3 -3 -4 -4 -4 -5 -5 -6 -7 -6 -5 -5 -5 -5 -6 -6 -6 -6 -6 -6 -6 -6 -5 -5 -5 -5 -5 -6 -6 -6 -6 -7 -7 -8 -8 -9 -10 -10 -11 -12 -12
-6 -6 -5 -5 -6 -6 -6 -6 -6 -6 -6 -7 -7 -7 -6 -6 -8 -8 -8 -8 -7 -7 -8 -7 -7 -7 -7 -7 -7 -7 -7 -8 -8 -8 -9 -9 -10 -10 -11 -11 -12 -12 -13 -14
-7 -8 -8 -8 -8 -8 -8 -8 -8 -8 -8 -8 -7 -8 -8 -8 -9 -9 -8 -8 -9 -9 -10 -9 -8 -8 -8 -9 -8 -8 -9 -9 -10 -10 -11 -11 -11 -12 -12 -13 -14 -14 -15 -15
-9 -9 -9 -10 -10 -10 -10 -10 -10 -10 -10 -9 -9 -9 -10 -10 -10 -10 -9 -11 -12 -12 -11 -10 -10 -10 -10 -10 -10 -10 -10 -11 -11 -12 -12 -13 -13 -14 -15 -15 -16 -16 -17 -18
-10 -10 -10 -10 -10 -10 -10 -10 -9 -10 -10 -9 -9 -10 -11 -11 -11 -11 -11 -12 -13 -12 -12 -12 -11 -12 -12 -12 -12 -12 -12 -12 -13 -14 -15 -16 -18 -19 -20 -20 -20 -20 -20 -21
-10 -10 -10 -10 -10 -10 -10 -10 -10 -10 -11 -11 -11 -11 -11 -12 -12 -12 -13 -13 -14 -13 -12 -13 -13 -14 -15 -17 -20 -22 -24 -24 -24 -23 -23 -23 -23 -23 -23 -23 -23 -23 -23 -23
-11 -11 -11 -11 -11 -11 -11 -11 -11 -11 -11 -12 -12 -12 -12 -13 -13 -13 -14 -15 -14 -15 -18 -21 -22 -24 -26 -27 -28 -28 -27 -27 -27 -26 -26 -25 -25 -25 -25 -25 -25 -25 -24 -25
-11 -11 -11 -11 -11 -11 -12 -12 -12 -12 -12 -13 -13 -13 -14 -14 -15 -16 -17 -18 -20 -21 -23 -23 -25 -27 -28 -29 -29 -29 -28 -27 -27 -27 -26 -26 -26 -25 -25 -25 -26 -26 -26 -26
-11 -11 -11 -11 -12 -12 -12 -13 -13 -13 -14 -14 -14 -15 -15 -16 -18 -18 -19 -20 -21 -23 -25 -26 -27 -28 -28 -28 -28 -28 -27 -27 -27 -26 -26 -26 -26 -26 -26 -26 -26 -26 -26 -26
-12 -12 -12 -13 -13 -13 -14 -14 -15 -15 -16 -17 -17 -17 -17 -18 -18 -19 -19 -20 -22 -23 -26 -27 -28 -28 -28 -28 -27 -27 -27 -26 -26 -26 -26 -26 -26 -26 -26 -26 -27 -27 -27 -27
-13 -13 -13 -14 -14 -14 -15 -16 -18 -18 -18 -18 -19 -18 -18 -18 -19 -19 -20 -22 -24 -26 -27 -28 -28 -28 -28 -28 -27 -27 -26 -26 -26 -26 -26 -26 -26 -26 -26 -26 -27 -27 -27 -26

GFSNGP_850_dewp_072.txt.gz
Dewpoint
1 -1 -0 0 0 -0 1 0 3 1 1 -0 -2 -2 -3 -3 -2 -2 -3 -3 -2 -1 -1 3 6 7 8 8 7 6 7 7 5 6 5 4 3 3 4 5 4 4 4 4
0 -2 -1 0 -2 -2 -2 -2 0 1 -0 -3 -2 -4 -4 -4 -3 -2 -2 -2 -2 -1 -1 -1 1 5 7 7 7 6 5 2 4 6 7 7 6 5 6 7 7 7 8 7
1 1 1 2 -0 -3 -3 -4 -1 0 -4 -3 -2 -2 -1 0 1 -1 -2 -2 -1 -2 -1 -0 -2 -3 0 2 8 5 2 3 3 5 6 7 8 8 8 8 8 8 8 8
3 3 3 -4 -5 -4 -2 -4 -4 -5 -2 -1 0 2 2 2 2 3 2 1 -0 -1 -1 -1 -0 -1 -3 4 5 3 4 4 3 1 4 6 8 8 8 8 8 8 8 8
2 0 -3 -5 -6 -6 -6 -6 -2 -2 -1 -0 1 1 -0 2 2 3 3 3 2 1 -1 -3 -4 -2 -1 -0 0 5 1 2 4 6 3 6 7 9 9 8 8 8 9 9
3 1 2 -3 -1 -0 -1 -3 -2 -1 -2 -2 -0 3 1 1 2 2 3 3 4 4 1 -1 -3 -3 -2 -2 2 4 1 3 6 7 7 7 7 8 7 8 9 9 9 9
3 3 0 -3 -5 1 1 2 -2 -2 -2 -2 -0 0 1 2 1 2 3 3 6 7 6 5 1 -1 -1 3 2 5 7 8 8 9 8 9 8 8 8 9 9 9 9 9
3 2 4 -2 -0 1 1 -1 -2 -1 -1 -1 -0 1 2 2 2 3 3 4 7 7 7 5 4 8 7 7 6 6 6 6 7 7 8 8 8 9 9 9 9 9 8 8
-0 -0 -1 0 -0 -2 2 2 1 2 2 2 3 2 2 2 3 3 4 5 6 6 8 8 7 8 7 6 5 7 9 9 8 8 9 9 9 9 9 9 8 8 8 6
-2 -4 -4 -5 -2 2 2 2 2 2 2 2 3 4 4 4 3 3 3 3 4 4 6 7 7 7 7 8 8 9 9 9 9 9 9 9 8 8 8 8 7 7 6 4
-3 -4 -5 -5 -1 2 2 2 2 1 0 -0 0 1 2 3 1 1 3 3 5 4 4 6 6 6 6 7 7 8 8 9 8 8 8 8 7 6 5 6 4 5 3 2
-3 0 1 -0 1 2 2 2 1 0 -1 -1 -2 -1 -0 -0 1 -0 2 3 3 3 4 3 5 6 5 5 5 6 7 7 7 7 6 5 4 2 1 2 2 1 1 1
0 0 1 1 1 1 1 1 -0 -2 -2 -2 -2 -1 -2 -1 1 1 1 0 -0 0 0 -1 1 4 3 4 3 3 4 5 5 4 3 2 1 0 -0 -2 -2 -2 -2 -2
-1 -1 -0 1 0 -0 0 -1 -2 -3 -3 -4 -4 -3 -2 -2 -0 0 -1 -4 -3 -2 -1 -1 -0 1 2 3 3 2 1 -1 -1 0 0 -2 -2 -3 -3 -4 -4 -6 -6 -6
-3 -3 -2 -2 -1 -1 -2 -2 -4 -5 -5 -6 -6 -5 -6 -6 -2 -3 -5 -5 -4 -4 -4 -3 -3 -3 -2 -1 -1 -0 -1 -2 -4 -4 -4 -4 -5 -6 -6 -7 -8 -8 -9 -9
-5 -4 -3 -3 -4 -4 -5 -5 -6 -7 -8 -8 -8 -8 -8 -9 -7 -7 -6 -6 -5 -6 -6 -6 -6 -6 -5 -4 -4 -4 -4 -4 -4 -5 -6 -6 -6 -7 -7 -8 -9 -10 -10 -11
-5 -4 -5 -4 -5 -7 -7 -8 -9 -9 -9 -9 -11 -11 -10 -10 -10 -9 -8 -8 -8 -8 -7 -7 -7 -7 -7 -6 -6 -6 -6 -6 -6 -6 -7 -7 -8 -8 -9 -9 -10 -11 -11 -12
-7 -7 -7 -7 -7 -8 -9 -10 -10 -10 -10 -10 -10 -10 -11 -10 -10 -10 -10 -9 -8 -9 -9 -9 -8 -8 -7 -7 -7 -7 -7 -7 -8 -8 -8 -8 -9 -10 -10 -11 -12 -12 -13 -13
-8 -8 -9 -9 -9 -10 -11 -11 -11 -11 -11 -11 -10 -11 -11 -11 -11 -10 -10 -10 -10 -10 -10 -9 -9 -9 -9 -9 -9 -9 -9 -9 -9 -10 -10 -11 -11 -12 -12 -13 -13 -14 -15 -15
-10 -10 -11 -11 -11 -11 -12 -12 -11 -11 -11 -11 -11 -11 -11 -12 -11 -11 -11 -12 -12 -12 -11 -10 -10 -10 -10 -10 -10 -10 -10 -10 -11 -11 -12 -12 -13 -14 -14 -14 -16 -16 -17 -18
-11 -12 -12 -12 -12 -12 -12 -11 -11 -12 -12 -11 -11 -12 -12 -12 -12 -13 -13 -13 -13 -13 -13 -15 -17 -20 -22 -22 -22 -21 -20 -20 -21 -21 -20 -19 -20 -20 -20 -21 -20 -19 -19 -19
-12 -12 -12 -12 -12 -12 -12 -12 -12 -12 -12 -12 -13 -13 -13 -13 -13 -13 -15 -18 -24 -28 -30 -32 -32 -32 -32 -32 -32 -32 -31 -30 -28 -26 -26 -26 -25 -25 -26 -25 -23 -22 -21 -22
-12 -12 -12 -12 -12 -12 -12 -12 -12 -12 -12 -13 -13 -13 -14 -17 -17 -17 -20 -25 -27 -31 -32 -33 -33 -33 -33 -33 -32 -31 -31 -30 -30 -29 -29 -28 -27 -27 -27 -27 -27 -27 -27 -27
-12 -12 -12 -12 -12 -12 -13 -13 -13 -14 -14 -15 -16 -17 -16 -17 -18 -19 -23 -27 -30 -31 -32 -32 -31 -31 -31 -31 -30 -30 -29 -29 -29 -28 -28 -28 -28 -27 -27 -27 -27 -27 -27 -27
-12 -12 -13 -13 -13 -14 -14 -14 -15 -16 -16 -17 -18 -20 -21 -21 -21 -22 -26 -29 -30 -30 -31 -30 -30 -30 -30 -29 -29 -29 -28 -28 -28 -28 -27 -27 -27 -27 -27 -27 -27 -27 -27 -27
-12 -12 -13 -13 -14 -15 -15 -15 -16 -16 -17 -18 -18 -19 -20 -22 -23 -26 -28 -29 -30 -30 -30 -30 -30 -29 -29 -29 -29 -29 -28 -28 -28 -28 -28 -28 -27 -27 -27 -27 -27 -27 -27 -27
-13 -14 -15 -15 -16 -17 -17 -16 -17 -18 -18 -19 -19 -20 -21 -23 -26 -28 -29 -29 -30 -30 -30 -29 -29 -29 -29 -29 -29 -28 -28 -28 -28 -28 -28 -27 -27 -27 -26 -26 -26 -27 -26 -26

GFSNGP_850_dewp_075.txt.gz
Dewpoint
2 2 -0 1 1 -0 1 1 3 3 1 -1 -2 -3 -3 -3 -3 -3 -3 -3 -3 -2 -2 -1 4 6 7 8 8 9 9 9 9 8 8 9 8 8 8 8 8 8 8 8
3 -1 -2 -1 -1 -1 -2 -2 -2 -2 -1 -4 -4 -4 -6 -5 -3 -1 -1 -1 -2 -2 -1 -2 -1 4 6 7 8 9 9 9 9 9 9 9 9 8 8 8 8 8 8 8
1 -4 -1 2 -1 -2 -2 -2 -2 -0 -0 -4 -3 -4 -3 -2 -1 2 2 2 2 2 1 -0 -1 0 1 5 7 8 9 9 9 9 9 9 9 9 9 8 8 7 7 7
2 2 3 -4 -6 -6 -4 -4 -5 -5 -4 -3 -3 -3 -2 -2 1 2 2 3 2 3 3 2 1 -0 0 1 4 7 8 9 9 9 9 9 9 9 9 9 8 8 8 8
3 1 -3 -6 -8 -7 -6 -6 -5 -4 -3 -3 -3 -2 -3 1 1 1 2 2 3 3 5 6 4 1 0 1 2 5 7 8 8 8 8 9 9 9 9 9 9 9 9 8
1 2 -0 -6 -4 -3 -5 -2 -3 -3 -3 -3 -3 -0 -2 -0 0 1 0 2 3 5 6 8 8 8 6 3 2 4 6 7 8 8 8 8 8 9 9 9 9 9 9 8
2 2 -2 -5 -5 -3 0 2 -2 -2 -2 -1 -0 -1 -1 -2 0 1 1 2 4 6 7 7 7 7 8 7 5 4 4 6 7 8 8 8 8 9 9 10 9 9 9 9
2 5 2 -6 -4 -0 2 1 -0 -0 -0 -0 -0 -0 -1 -1 0 2 2 3 4 5 5 7 7 7 7 9 8 7 6 5 7 8 8 9 9 10 10 9 9 8 9 9
-2 -1 -3 -2 -0 0 1 0 0 0 -0 0 1 1 2 1 2 3 2 2 3 3 6 6 6 6 5 7 7 8 8 8 8 8 9 9 9 10 10 9 9 8 8 8
4 -1 2 -2 -4 -0 1 1 1 1 1 1 1 1 2 2 3 2 1 1 1 3 4 6 4 4 3 4 6 7 7 8 8 9 9 9 9 9 9 9 8 8 7 6
-5 -5 -6 -6 -1 0 1 1 1 1 1 0 0 0 0 1 1 1 -0 -1 1 2 3 5 3 4 4 3 4 5 5 4 5 6 7 8 6 6 4 5 5 5 5 2
-2 1 1 -1 0 1 1 1 1 -0 -1 -1 -1 -1 -0 0 -1 -1 -2 -2 -0 1 2 2 1 0 3 3 3 4 3 2 1 1 1 3 3 1 1 1 1 1 1 -1
-0 -0 0 0 1 0 0 -1 -0 -0 -2 -2 -2 -3 -3 -3 -3 -4 -4 -4 -1 -1 -1 0 -0 0 -0 1 1 1 3 2 1 -2 -1 -2 -2 -1 -1 -3 -4 -4 -3 -4
-1 -2 -1 -0 -0 -1 -1 -1 -1 -3 -4 -4 -5 -5 -5 -4 -5 -5 -6 -6 -5 -3 -2 -2 -2 -2 -3 -2 -2 -2 -1 -1 -0 -1 -4 -5 -4 -5 -5 -5 -6 -7 -7 -7
-3 -3 -2 -1 -2 -2 -2 -3 -4 -5 -6 -6 -7 -7 -7 -7 -7 -8 -9 -9 -8 -7 -5 -5 -5 -5 -4 -4 -3 -3 -3 -5 -5 -4 -5 -6 -6 -6 -7 -7 -8 -9 -9 -9
-5 -4 -4 -3 -3 -4 -4 -5 -5 -6 -7 -8 -9 -10 -10 -10 -10 -10 -8 -9 -9 -9 -8 -7 -7 -7 -6 -6 -6 -6 -7 -7 -8 -8 -8 -8 -7 -8 -8 -9 -10 -11 -11 -11
-5 -4 -5 -5 -5 -6 -6 -7 -8 -9 -10 -10 -10 -10 -10 -10 -9 -9 -10 -10 -10 -9 -9 -8 -8 -7 -7 -6 -7 -7 -7 -7 -8 -8 -8 -9 -9 -9 -10 -10 -11 -11 -12 -12
-6 -6 -6 -6 -6 -6 -8 -9 -10 -10 -11 -10 -10 -10 -10 -10 -11 -11 -11 -11 -10 -10 -10 -9 -9 -8 -8 -8 -7 -7 -7 -8 -8 -9 -9 -10 -11 -11 -11 -11 -12 -12 -13 -13
-8 -8 -8 -8 -8 -9 -10 -10 -11 -12 -11 -11 -10 -11 -11 -11 -11 -11 -11 -10 -11 -11 -12 -11 -10 -9 -9 -9 -9 -9 -10 -10 -10 -11 -11 -11 -12 -13 -13 -14 -14 -15 -15 -15
-9 -9 -10 -10 -11 -11 -12 -12 -12 -12 -12 -12 -12 -12 -12 -13 -13 -13 -12 -12 -14 -14 -14 -12 -13 -13 -13 -12 -12 -12 -13 -13 -13 -13 -14 -14 -15 -15 -15 -15 -16 -16 -17 -17
-11 -11 -12 -12 -12 -12 -12 -12 -12 -12 -12 -12 -11 -12 -12 -13 -13 -14 -14 -16 -19 -25 -29 -32 -31 -24 -25 -18 -17 -17 -15 -15 -15 -16 -16 -16 -16 -17 -17 -17 -17 -18 -18 -18
-11 -12 -12 -12 -13 -13 -13 -13 -13 -13 -13 -13 -14 -14 -14 -14 -15 -21 -21 -17 -21 -28 -30 -33 -33 -33 -26 -19 -18 -19 -18 -17 -17 -17 -18 -18 -18 -18 -18 -19 -19 -19 -20 -20
-12 -12 -12 -12 -12 -13 -13 -13 -13 -13 -13 -14 -14 -15 -16 -16 -17 -17 -19 -26 -28 -31 -30 -33 -32 -32 -28 -19 -18 -18 -18 -19 -19 -19 -19 -19 -19 -20 -20 -20 -20 -20 -21 -21
-12 -12 -12 -13 -13 -13 -14 -14 -14 -14 -15 -16 -18 -16 -15 -16 -17 -18 -20 -29 -32 -32 -32 -32 -32 -32 -26 -20 -19 -20 -19 -20 -20 -20 -20 -20 -20 -21 -21 -23 -22 -21 -24 -26
-12 -12 -12 -13 -13 -13 -14 -14 -14 -15 -15 -16 -17 -17 -18 -18 -19 -21 -23 -29 -31 -23 -29 -31 -31 -29 -24 -25 -25 -21 -21 -27 -26 -21 -21 -21 -21 -21 -22 -23 -26 -28 -27 -27
-13 -13 -13 -14 -13 -13 -14 -14 -15 -15 -15 -16 -17 -18 -18 -19 -19 -19 -22 -25 -25 -23 -21 -26 -30 -21 -21 -23 -21 -23 -21 -22 -21 -23 -23 -21 -22 -22 -25 -27 -27 -27 -27 -27
-13 -13 -13 -14 -15 -15 -15 -15 -15 -15 -16 -17 -18 -18 -19 -19 -19 -19 -20 -20 -20 -20 -20 -20 -22 -28 -28 -25 -22 -22 -22 -22 -26 -28 -26 -25 -25 -25 -26 -27 -27 -27 -27 -26